User: anonymous   Login
Location: Zagreb
(45.8000°N, 16.0000°E)
Time: 23:46:52
(UTC+01:00)
Language:

CAS-4B - Orbit

View from above orbital plane
View from above orbital plane
View from above satellite
View from above satellite

Ground track
Ground track

The orbit data is extracted from the following two-line orbital elements,

1 42759U 17034B   20304.51560303  .00000552  00000-0  46867-4 0  9991
2 42759  43.0194   4.9330 0009609 169.3697 325.6656 15.09926096186380
Epoch (UTC): 30 October 2020 12:22:28
Eccentricity: 0.0009609
inclination: 43.0194°
perigee height: 530 km
apogee height: 543 km
right ascension of ascending node: 4.9330°
argument of perigee: 169.3697°
revolutions per day: 15.09926096
mean anomaly at epoch: 325.6656°
orbit number at epoch: 18638

The dashed part of the orbit path shows where the satellite is in the earth's shadow,  

DLR